Location: Lac Echo
(45.9375°N, 75.4580°W)
Time: 01:25:17
(UTC-04:00)

Amateur Radio Satellites - All Passes

Search period start: 31 March 2015 00:55
Search period end: 01 April 2015 00:55
Location: Lac Echo, 45.9375°N, 75.4580°W

Satellite Date Start Highest point End Downlink Frequencies (MHz)
Time Altitude Azimuth
BUGSAT 1 31 Mar 00:55:25 00:59:20 49° 288° (WNW) 01:03:14 437.445
PCSat 31 Mar 00:57:31 01:02:14 30° 249° (WSW) 01:06:50 145.827
SWISSCUBE 31 Mar 01:04:08 01:08:35 40° 69° (ENE) 01:13:06 437.505
POPSAT HIP 1 31 Mar 01:04:41 01:08:27 31° 291° (WNW) 01:12:10 437.405
BEESAT 31 Mar 01:06:51 01:11:16 39° 68° (ENE) 01:15:45 436.000
TISAT 1 31 Mar 01:11:53 01:15:42 33° 264° (W) 01:19:31 437.305
NANOSAT C BR1 31 Mar 01:14:50 01:18:20 25° 293° (WNW) 01:21:46 145.865
Oscar 19 31 Mar 01:16:46 01:19:18 14° 87° (E) 01:22:07 437.125/150
POLYITAN 1 31 Mar 01:20:41 01:24:00 22° 294° (WNW) 01:27:15 437.675
ISS 31 Mar 01:26:58 01:29:53 30° 353° (N) 01:32:49 145.825
SPROUT 31 Mar 01:28:54 01:32:10 20° 269° (W) 01:35:19 437.525
UNISAT 6 31 Mar 01:39:53 01:41:01 11° 301° (WNW) 01:41:55 437.425
RS-15 31 Mar 01:53:25 02:03:41 38° 26° (NNE) 02:14:27 29.354- 29.394
ITUPSAT 1 31 Mar 01:54:19 01:59:08 79° 257° (WSW) 02:03:59 437.325
QB50P1 31 Mar 01:59:06 01:59:59 10° 301° (WNW) 02:00:40 145.935-145.965
DUCHIFAT 1 31 Mar 02:00:05 02:00:52 10° 301° (WNW) 02:01:28 145.980
ITAMSAT 1 31 Mar 02:25:03 02:28:40 19° 90° (E) 02:32:26 435.822/435.867
KKS-1 31 Mar 02:26:03 02:30:17 45° 70° (ENE) 02:34:32 437.445
YUBILEINY 31 Mar 02:27:53 02:35:55 40° 274° (W) 02:43:45 435.215
SO-50 31 Mar 02:32:59 02:37:31 34° 42° (NE) 02:42:03 436.795
SWISSCUBE 31 Mar 02:42:33 02:46:36 26° 267° (W) 02:50:36 437.505
BEESAT 31 Mar 02:45:11 02:49:15 26° 266° (W) 02:53:16 436.000
STARS 31 Mar 02:54:04 02:58:21 57° 73° (ENE) 03:02:40 437.465
Oscar 19 31 Mar 02:54:12 02:59:24 81° 286° (WNW) 03:04:36 437.125/150
ISS 31 Mar 03:03:47 03:06:49 35° 13° (NNE) 03:09:51 145.825
Gurwin Techsat 1B 31 Mar 03:22:42 03:27:54 52° 99° (E) 03:33:05 435.225
AIST 1 31 Mar 03:42:21 03:45:57 25° 89° (E) 03:49:37
O/OREOS (USA 219) 31 Mar 03:58:52 04:03:13 44° 108° (ESE) 04:07:37 437.305
ITAMSAT 1 31 Mar 04:03:31 04:08:39 60° 289° (WNW) 04:13:43 435.822/435.867
KKS-1 31 Mar 04:03:54 04:07:11 20° 269° (W) 04:10:22 437.445
RS-15 31 Mar 04:06:19 04:17:49 88° 55° (NE) 04:29:51 29.354- 29.394
MOZHAYETS 4 31 Mar 04:13:09 04:17:22 37° 69° (ENE) 04:21:40
SO-50 31 Mar 04:13:29 04:18:11 42° 241° (WSW) 04:22:48 436.795
AUBIESAT-1 31 Mar 04:21:58 04:25:25 25° 59° (ENE) 04:29:09 437.475
HORYU 2 31 Mar 04:28:01 04:32:27 52° 100° (E) 04:36:52 437.375
STARS 31 Mar 04:32:34 04:35:15 15° 271° (W) 04:37:47 437.465
Oscar 19 31 Mar 04:35:33 04:38:02 13° 303° (WNW) 04:40:18 437.125/150
ISS 31 Mar 04:40:10 04:43:23 62° 212° (SSW) 04:46:34 145.825
AO-7 31 Mar 04:40:50 04:48:37 43° 98° (E) 04:56:26 29.400- 29.500
M-CUBED/EXP-1 PRIME 31 Mar 04:47:16 04:51:14 47° 65° (ENE) 04:55:35 437.505
GONETS M04 31 Mar 04:49:14 04:54:47 18° 54° (NE) 05:00:45
JAS-2 31 Mar 04:53:15 05:00:47 51° 96° (E) 05:07:45 435.910
Gurwin Techsat 1B 31 Mar 05:03:18 05:07:36 25° 297° (WNW) 05:11:47 435.225
AIST 1 31 Mar 05:19:32 05:23:31 32° 287° (WNW) 05:27:28
O/OREOS (USA 219) 31 Mar 05:39:03 05:42:52 25° 308° (NW) 05:46:38 437.305
VERMONT LUNAR 31 Mar 05:45:30 05:48:04 21° 163° (SSE) 05:50:39 437.305
MOZHAYETS 4 31 Mar 05:50:47 05:54:42 26° 267° (W) 05:58:35
AUBIESAT-1 31 Mar 05:56:10 06:00:03 38° 259° (WSW) 06:04:14 437.475
STRAND 1 31 Mar 05:58:15 06:02:20 25° 63° (ENE) 06:06:32 437.568
CUBESAT XI-V 31 Mar 06:05:00 06:09:26 42° 70° (ENE) 06:13:53 437.345
HORYU 2 31 Mar 06:05:32 06:08:46 19° 297° (WNW) 06:11:54 437.375
PRISM 31 Mar 06:08:30 06:12:22 36° 69° (ENE) 06:16:17 437.425
RS-15 31 Mar 06:19:47 06:29:10 29° 255° (WSW) 06:38:24 29.354- 29.394
M-CUBED/EXP-1 PRIME 31 Mar 06:23:26 06:26:29 19° 265° (W) 06:29:36 437.505
AO-7 31 Mar 06:33:40 06:41:34 50° 298° (WNW) 06:49:24 29.400- 29.500
CUTE-I 31 Mar 06:38:02 06:42:31 28° 93° (E) 06:47:04 437.470
JAS-2 31 Mar 06:38:31 06:45:38 40° 297° (WNW) 06:52:13 435.910
Cubesat XI-IV 31 Mar 06:38:46 06:43:17 28° 93° (E) 06:47:52 437.490
DANDE 31 Mar 06:38:55 06:39:10 10° 67° (ENE) 06:39:42 436.750
PHONESAT 2.4 31 Mar 06:40:54 06:43:43 23° 163° (SSE) 06:46:35 2401.200-2431.200
GONETS M04 31 Mar 06:44:41 06:53:34 75° 79° (E) 07:02:25
CUSAT 1 31 Mar 07:17:46 07:21:40 34° 75° (ENE) 07:26:46 437.405
VERMONT LUNAR 31 Mar 07:22:16 07:25:17 32° 180° (S) 07:28:20 437.305
STRAND 1 31 Mar 07:36:19 07:41:17 49° 261° (W) 07:46:18 437.568
CUBESAT XI-V 31 Mar 07:43:16 07:47:05 23° 268° (W) 07:50:48 437.345
PRISM 31 Mar 07:44:36 07:47:59 22° 267° (W) 07:51:18 437.425
CUTE-I 31 Mar 08:17:45 08:22:49 44° 292° (WNW) 08:27:48 437.470
PHONESAT 2.4 31 Mar 08:18:22 08:21:36 34° 180° (S) 08:24:50 2401.200-2431.200
Cubesat XI-IV 31 Mar 08:18:32 08:23:35 43° 292° (WNW) 08:28:33 437.490
DANDE 31 Mar 08:18:39 08:22:40 84° 260° (W) 08:28:06 436.750
HO-68 31 Mar 08:21:49 08:25:47 16° 85° (E) 08:30:08 435.675
JAS-2 31 Mar 08:28:12 08:28:39 10° 318° (NW) 08:28:42 435.910
AO-7 31 Mar 08:28:33 08:32:34 14° 321° (NW) 08:36:14 29.400- 29.500
CUTE 1.7 + AOD 2 31 Mar 08:37:38 08:39:03 12° 86° (E) 08:40:42 437.475
GONETS M04 31 Mar 08:42:39 08:49:39 26° 279° (W) 08:56:21
BRITE-PL 31 Mar 08:48:40 08:52:15 27° 95° (E) 08:56:01 437.365/2234.400
AAUSAT CUBESAT 2 31 Mar 08:55:30 08:56:03 10° 86° (E) 08:56:52 437.432
VERMONT LUNAR 31 Mar 08:59:51 09:02:32 22° 196° (SSW) 09:05:12 437.305
CUSAT 1 31 Mar 09:00:38 09:04:27 27° 264° (W) 09:09:08 437.405
SEEDS 31 Mar 09:02:47 09:05:43 18° 90° (E) 09:08:45 437.485
DOVE 4 31 Mar 09:05:19 09:08:26 19° 92° (E) 09:11:46 437.250
BEESAT 3 31 Mar 09:14:18 09:16:04 13° 111° (ESE) 09:18:00 437.485
COMPASS 1 31 Mar 09:21:54 09:25:19 23° 93° (E) 09:28:46 437.405
GOMX 1 31 Mar 09:25:10 09:29:15 43° 98° (E) 09:33:33 467.674
UNISAT 6 31 Mar 09:27:27 09:29:49 15° 61° (ENE) 09:32:22 437.425
Oscar 11 31 Mar 09:34:02 09:36:12 14° 88° (E) 09:38:34 145.826/435.025
TIGRISAT 31 Mar 09:36:16 09:39:04 18° 63° (ENE) 09:42:00 435.000
QB50P1 31 Mar 09:43:08 09:44:23 11° 60° (ENE) 09:45:50 145.935-145.965
DUCHIFAT 1 31 Mar 09:43:52 09:45:04 11° 60° (ENE) 09:46:27 145.980
FUNcube-1 31 Mar 09:49:34 09:50:24 11° 86° (E) 09:51:30 145.935
DELFI C3 31 Mar 09:56:21 09:59:05 17° 90° (E) 10:01:55 145.870
PHONESAT 2.4 31 Mar 09:56:38 09:59:28 23° 197° (SSW) 10:02:19 2401.200-2431.200
QB50P2 31 Mar 09:57:15 09:59:47 16° 63° (ENE) 10:02:27 145.880/145.840
UWE-3 31 Mar 09:57:25 10:00:13 17° 90° (E) 10:03:13 435.000/436.395/437.385
CANX-2 31 Mar 09:57:36 10:01:57 88° 96° (E) 10:06:16 2200.000
ZACube-1 31 Mar 10:01:49 10:04:17 15° 89° (E) 10:06:58 437.345
AIST 2 31 Mar 10:02:59 10:04:49 13° 110° (ESE) 10:06:51 435.215
CUBEBUG 2 31 Mar 10:06:02 10:09:38 24° 93° (E) 10:13:24 437.445
ANTELSAT 31 Mar 10:06:21 10:10:14 34° 69° (ENE) 10:14:12 437.575/2403.000
CINEMA 3 31 Mar 10:06:54 10:11:07 43° 98° (E) 10:15:32 145.822/145.860
HO-68 31 Mar 10:07:30 10:14:46 82° 105° (ESE) 10:21:59 435.675
CUTE 1.7 + AOD 2 31 Mar 10:11:16 10:15:35 74° 285° (WNW) 10:19:53 437.475
BUGSAT 1 31 Mar 10:14:01 10:16:34 17° 64° (ENE) 10:19:14 437.445
BEESAT 2 31 Mar 10:15:03 10:18:57 43° 120° (ESE) 10:22:57 435.950
POPSAT HIP 1 31 Mar 10:24:21 10:27:55 28° 68° (ENE) 10:31:34 437.405
BRITE-PL 31 Mar 10:27:09 10:30:50 29° 291° (WNW) 10:34:36 437.365/2234.400
AAUSAT CUBESAT 2 31 Mar 10:28:05 10:32:21 80° 285° (WNW) 10:36:35 437.432
NANOSAT C BR1 31 Mar 10:33:50 10:37:38 34° 69° (ENE) 10:41:29 145.865
HUMSAT D 31 Mar 10:36:38 10:39:25 17° 90° (E) 10:42:20 437.325/437.525
SEEDS 31 Mar 10:37:41 10:41:48 46° 289° (WNW) 10:45:54 437.485
POLYITAN 1 31 Mar 10:39:46 10:43:43 40° 70° (ENE) 10:47:42 437.675
UKube-1 31 Mar 10:40:15 10:43:47 24° 94° (E) 10:47:20 .
DOVE 4 31 Mar 10:42:19 10:46:27 45° 288° (WNW) 10:50:47 437.250
BEESAT 3 31 Mar 10:49:30 10:53:36 75° 307° (NW) 10:57:46 437.485
DX 1 31 Mar 10:52:53 10:56:50 34° 97° (E) 11:00:49 434.975-435.025
COMPASS 1 31 Mar 10:57:12 11:01:07 35° 290° (WNW) 11:04:58 437.405
50 SAT 31 Mar 10:59:31 11:02:22 19° 92° (E) 11:05:20 437.505
UNISAT 6 31 Mar 11:01:55 11:06:09 64° 259° (W) 11:10:29 437.425
GOMX 1 31 Mar 11:04:00 11:07:14 20° 294° (WNW) 11:10:26 467.674
Oscar 11 31 Mar 11:08:33 11:12:54 64° 287° (WNW) 11:17:12 145.826/435.025
TIGRISAT 31 Mar 11:11:19 11:15:28 52° 261° (W) 11:19:43 435.000
QB50P1 31 Mar 11:15:28 11:19:42 85° 256° (WSW) 11:23:56 145.935-145.965
DUCHIFAT 1 31 Mar 11:16:07 11:20:20 85° 256° (WSW) 11:24:34 145.980
FUNcube-1 31 Mar 11:22:59 11:27:24 84° 284° (WNW) 11:31:53 145.935
DELFI C3 31 Mar 11:30:36 11:34:32 44° 288° (WNW) 11:38:25 145.870
QB50P2 31 Mar 11:31:09 11:35:19 56° 260° (W) 11:39:29 145.880/145.840
UWE-3 31 Mar 11:32:48 11:37:07 54° 287° (WNW) 11:41:32 435.000/436.395/437.385
CUBEBUG 1 31 Mar 11:35:33 11:38:49 21° 92° (E) 11:42:09 437.445
CANX-2 31 Mar 11:35:47 11:37:17 11° 300° (WNW) 11:38:37 2200.000
ZACube-1 31 Mar 11:36:45 11:41:05 60° 287° (WNW) 11:45:31 437.345
AIST 2 31 Mar 11:38:36 11:42:52 79° 306° (NW) 11:47:13 435.215
VELOX 1 31 Mar 11:40:57 11:45:14 49° 100° (E) 11:49:31 145.980
CUBEBUG 2 31 Mar 11:42:22 11:46:27 37° 290° (WNW) 11:50:38 437.445
ANTELSAT 31 Mar 11:43:36 11:47:09 24° 267° (W) 11:50:41 437.575/2403.000
CINEMA 3 31 Mar 11:44:43 11:48:08 22° 294° (WNW) 11:51:34 145.822/145.860
AISAT 31 Mar 11:46:30 11:50:52 58° 101° (E) 11:55:13 437.250
BUGSAT 1 31 Mar 11:47:40 11:51:44 52° 260° (W) 11:55:46 437.445
BEESAT 2 31 Mar 11:53:44 11:57:17 26° 319° (NW) 12:00:49 435.950
HO-68 31 Mar 11:56:14 12:01:49 24° 305° (NW) 12:07:12 435.675
POPSAT HIP 1 31 Mar 12:00:05 12:03:47 29° 265° (W) 12:07:28 437.405
NANOSAT C BR1 31 Mar 12:10:10 12:13:37 23° 267° (W) 12:16:57 145.865
HUMSAT D 31 Mar 12:11:22 12:15:30 49° 288° (WNW) 12:19:38 437.325/437.525
UKube-1 31 Mar 12:16:04 12:20:02 35° 291° (WNW) 12:23:56 .
POLYITAN 1 31 Mar 12:16:41 12:19:51 20° 268° (W) 12:22:56 437.675
ESTCUBE 1 31 Mar 12:22:58 12:27:31 72° 102° (ESE) 12:32:01 437.505/2401.250
O/OREOS (USA 219) 31 Mar 12:27:50 12:30:58 18° 48° (NE) 12:34:11 437.305
DX 1 31 Mar 12:29:22 12:32:59 25° 294° (WNW) 12:36:31 434.975-435.025
BEESAT 3 31 Mar 12:30:01 12:32:25 15° 328° (NNW) 12:34:43 437.485
50 SAT 31 Mar 12:33:41 12:37:29 40° 289° (WNW) 12:41:16 437.505
Oscar 19 31 Mar 12:35:27 12:39:39 27° 64° (ENE) 12:43:58 437.125/150
TISAT 1 31 Mar 12:53:52 12:57:36 31° 96° (E) 13:01:22 437.305
FUNcube-1 31 Mar 13:01:59 13:03:08 11° 300° (WNW) 13:04:03 145.935
Gurwin Techsat 1B 31 Mar 13:08:59 13:12:11 17° 59° (ENE) 13:15:35 435.225
CUBEBUG 1 31 Mar 13:11:19 13:15:24 40° 290° (WNW) 13:19:26 437.445
SPROUT 31 Mar 13:11:47 13:16:02 58° 100° (E) 13:20:16 437.525
VELOX 1 31 Mar 13:18:19 13:21:30 19° 297° (WNW) 13:24:36 145.980
AIST 2 31 Mar 13:19:31 13:22:13 16° 328° (NNW) 13:24:50 435.215
AISAT 31 Mar 13:24:11 13:27:05 17° 298° (WNW) 13:29:51 437.250
YUBILEINY 31 Mar 13:34:22 13:42:47 54° 90° (E) 13:51:19 435.215
ITAMSAT 1 31 Mar 13:45:02 13:49:48 38° 67° (ENE) 13:54:39 435.822/435.867
ITUPSAT 1 31 Mar 13:53:12 13:56:56 23° 92° (E) 14:00:45 437.325
AO-7 31 Mar 13:53:33 13:58:52 20° 46° (NE) 14:04:30 29.400- 29.500
PCSat 31 Mar 13:58:49 14:03:05 25° 109° (ESE) 14:07:29 145.827
ESTCUBE 1 31 Mar 14:01:19 14:03:53 15° 299° (WNW) 14:06:17 437.505/2401.250
O/OREOS (USA 219) 31 Mar 14:06:22 14:10:53 64° 249° (WSW) 14:15:21 437.305
Oscar 19 31 Mar 14:13:57 14:18:49 44° 262° (W) 14:23:44 437.125/150
TISAT 1 31 Mar 14:29:48 14:33:20 26° 293° (WNW) 14:36:49 437.305
SWISSCUBE 31 Mar 14:39:24 14:44:12 68° 102° (ESE) 14:48:56 437.505
BEESAT 31 Mar 14:41:57 14:46:45 67° 102° (ESE) 14:51:31 436.000
Gurwin Techsat 1B 31 Mar 14:46:16 14:51:35 82° 255° (WSW) 14:56:57 435.225
SPROUT 31 Mar 14:49:02 14:51:44 16° 297° (WNW) 14:54:16 437.525
JAS-2 31 Mar 15:07:23 15:13:34 33° 60° (ENE) 15:20:16 435.910
AIST 1 31 Mar 15:23:39 15:28:00 81° 79° (E) 15:32:17
ITAMSAT 1 31 Mar 15:24:46 15:29:25 31° 265° (W) 15:34:00 435.822/435.867
HORYU 2 31 Mar 15:28:37 15:33:01 66° 73° (ENE) 15:37:27 437.375
ITUPSAT 1 31 Mar 15:30:30 15:35:05 45° 291° (WNW) 15:39:37 437.325
YUBILEINY 31 Mar 15:31:49 15:39:59 39° 293° (WNW) 15:48:05 435.215
PCSat 31 Mar 15:40:51 15:46:11 56° 307° (NW) 15:51:33 145.827
AO-7 31 Mar 15:42:12 15:50:25 71° 67° (ENE) 15:58:41 29.400- 29.500
KKS-1 31 Mar 15:51:00 15:55:27 67° 102° (ESE) 15:59:53 437.445
STARS 31 Mar 16:17:38 16:22:04 82° 106° (ESE) 16:26:30 437.465
SWISSCUBE 31 Mar 16:18:28 16:21:35 17° 299° (WNW) 16:24:33 437.505
BEESAT 31 Mar 16:20:59 16:24:09 17° 299° (WNW) 16:27:09 436.000
Cubesat XI-IV 31 Mar 16:28:42 16:29:07 10° 53° (NE) 16:29:49 437.490
Gurwin Techsat 1B 31 Mar 16:30:49 16:32:33 11° 276° (W) 16:33:57 435.225
JAS-2 31 Mar 16:51:06 16:58:07 63° 261° (W) 17:05:49 435.910
BEESAT 2 31 Mar 16:55:24 16:57:18 13° 29° (NNE) 16:59:18 435.950
HORYU 2 31 Mar 17:07:49 17:10:13 14° 272° (W) 17:12:26 437.375
PCSat 31 Mar 17:27:45 17:30:53 15° 331° (NNW) 17:33:54 145.827
BEESAT 3 31 Mar 17:28:56 17:32:12 22° 39° (NE) 17:35:28 437.485
KKS-1 31 Mar 17:28:59 17:31:38 15° 299° (WNW) 17:34:08 437.445
AUBIESAT-1 31 Mar 17:36:00 17:38:42 15° 92° (E) 17:41:33 437.475
AO-7 31 Mar 17:36:57 17:43:59 29° 268° (W) 17:50:49 29.400- 29.500
MOZHAYETS 4 31 Mar 17:42:30 17:47:09 63° 101° (E) 17:51:45
STARS 31 Mar 17:55:58 17:57:58 13° 300° (WNW) 17:59:47 437.465
GONETS M04 31 Mar 17:56:36 18:01:23 17° 76° (ENE) 18:06:40
M-CUBED/EXP-1 PRIME 31 Mar 18:01:27 18:05:40 29° 99° (E) 18:09:51 437.505
CUTE-I 31 Mar 18:02:06 18:07:20 57° 71° (ENE) 18:12:37 437.470
Cubesat XI-IV 31 Mar 18:02:59 18:08:15 59° 71° (ENE) 18:13:33 437.490
AIST 2 31 Mar 18:20:16 18:23:43 23° 39° (NE) 18:27:09 435.215
SO-50 31 Mar 18:30:08 18:34:21 36° 117° (ESE) 18:38:46 436.795
BEESAT 2 31 Mar 18:32:12 18:36:20 60° 51° (NE) 18:40:24 435.950
RS-15 31 Mar 18:33:27 18:43:18 43° 111° (ESE) 18:53:29 29.354- 29.394
JAS-2 31 Mar 18:42:08 18:45:03 12° 283° (WNW) 18:47:30 435.910
HO-68 31 Mar 18:53:59 18:58:30 19° 51° (NE) 19:03:18 435.675
BEESAT 3 31 Mar 19:06:31 19:10:34 55° 239° (WSW) 19:14:31 437.485
AUBIESAT-1 31 Mar 19:09:14 19:14:06 74° 291° (WNW) 19:18:47 437.475
MOZHAYETS 4 31 Mar 19:20:51 19:23:56 17° 298° (WNW) 19:26:52
CANX-2 31 Mar 19:21:12 19:21:44 10° 59° (ENE) 19:22:29 2200.000
PRISM 31 Mar 19:23:51 19:27:49 41° 98° (E) 19:31:46 437.425
CUTE 1.7 + AOD 2 31 Mar 19:33:24 19:35:11 13° 61° (ENE) 19:37:09 437.475
M-CUBED/EXP-1 PRIME 31 Mar 19:36:04 19:40:37 39° 297° (WNW) 19:45:01 437.505
CUBESAT XI-V 31 Mar 19:36:21 19:41:00 75° 102° (ESE) 19:45:37 437.345
CUTE-I 31 Mar 19:43:44 19:47:52 21° 269° (W) 19:51:50 437.470
STRAND 1 31 Mar 19:44:13 19:49:09 46° 99° (E) 19:54:03 437.568
Cubesat XI-IV 31 Mar 19:44:45 19:48:49 21° 270° (W) 19:52:44 437.490
GONETS M04 31 Mar 19:48:15 19:56:55 79° 96° (E) 20:05:43
AAUSAT CUBESAT 2 31 Mar 19:49:11 19:50:17 11° 60° (ENE) 19:51:37 437.432
SEEDS 31 Mar 19:57:44 20:00:37 19° 64° (ENE) 20:03:37 437.485
AIST 2 31 Mar 19:58:26 20:02:37 55° 239° (WSW) 20:06:43 435.215
BRITE-PL 31 Mar 20:02:01 20:06:19 43° 72° (ENE) 20:10:24 437.365/2234.400
SO-50 31 Mar 20:10:33 20:14:55 36° 317° (NW) 20:19:25 436.795
BEESAT 2 31 Mar 20:11:28 20:14:05 16° 248° (WSW) 20:16:31 435.950
DOVE 4 31 Mar 20:13:52 20:17:18 25° 67° (ENE) 20:20:45 437.250
COMPASS 1 31 Mar 20:15:55 20:19:12 23° 66° (ENE) 20:22:34 437.405
Oscar 11 31 Mar 20:31:30 20:34:03 16° 63° (ENE) 20:36:45 145.826/435.025
CUSAT 1 31 Mar 20:32:29 20:34:20 17° 94° (E) 20:36:12 437.405
GOMX 1 31 Mar 20:36:01 20:40:21 62° 74° (ENE) 20:44:31 467.674
HO-68 31 Mar 20:38:06 20:45:15 78° 71° (ENE) 20:52:28 435.675
RS-15 31 Mar 20:44:29 20:55:18 64° 315° (NW) 21:06:27 29.354- 29.394
AUBIESAT-1 31 Mar 20:46:00 20:48:08 13° 308° (NW) 20:50:04 437.475
DELFI C3 31 Mar 20:47:05 20:49:36 16° 64° (ENE) 20:52:15 145.870
FUNcube-1 31 Mar 20:48:16 20:49:40 12° 60° (ENE) 20:51:15 145.935
CANX-2 31 Mar 20:52:46 20:57:00 85° 80° (E) 21:01:19 2200.000
UWE-3 31 Mar 20:57:41 21:00:26 18° 64° (ENE) 21:03:19 435.000/436.395/437.385
PRISM 31 Mar 20:59:56 21:03:04 20° 296° (WNW) 21:06:06 437.425
ZACube-1 31 Mar 21:00:55 21:03:24 16° 63° (ENE) 21:06:02 437.345
PCSat 31 Mar 21:01:20 21:03:04 11° 23° (NNE) 21:04:55 145.827
CUTE 1.7 + AOD 2 31 Mar 21:06:20 21:10:35 76° 258° (WSW) 21:14:52 437.475
CUBEBUG 2 31 Mar 21:07:15 21:10:41 26° 67° (ENE) 21:14:11 437.445
CINEMA 3 31 Mar 21:11:29 21:15:31 51° 72° (ENE) 21:19:34 145.822/145.860
CUBESAT XI-V 31 Mar 21:15:19 21:17:55 15° 299° (WNW) 21:20:20 437.345
AAUSAT CUBESAT 2 31 Mar 21:21:09 21:25:20 86° 256° (WSW) 21:29:35 437.432
STRAND 1 31 Mar 21:23:55 21:28:08 26° 296° (WNW) 21:32:13 437.568
HUMSAT D 31 Mar 21:31:34 21:34:12 17° 64° (ENE) 21:36:57 437.325/437.525
SEEDS 31 Mar 21:32:02 21:36:07 47° 261° (W) 21:40:15 437.485
DANDE 31 Mar 21:36:34 21:39:23 61° 283° (WNW) 21:41:59 436.750
UKube-1 31 Mar 21:37:31 21:41:16 29° 67° (ENE) 21:45:04 .
BRITE-PL 31 Mar 21:41:38 21:45:04 20° 268° (W) 21:48:16 437.365/2234.400
GONETS M04 31 Mar 21:47:47 21:54:55 26° 300° (WNW) 22:01:52
50 SAT 31 Mar 21:48:37 21:51:04 17° 64° (ENE) 21:53:39 437.505
DX 1 31 Mar 21:50:45 21:54:51 42° 70° (ENE) 21:58:59 434.975-435.025
COMPASS 1 31 Mar 21:50:50 21:54:44 36° 264° (W) 21:58:39 437.405
DOVE 4 31 Mar 21:51:11 21:55:02 32° 264° (W) 21:58:46 437.250
ESTCUBE 1 31 Mar 21:51:33 21:53:09 12° 59° (ENE) 21:54:57 437.505/2401.250
SO-50 31 Mar 21:55:04 21:56:55 12° 340° (NNW) 21:58:42 436.795
Oscar 11 31 Mar 22:05:32 22:09:49 60° 259° (W) 22:14:07 145.826/435.025
CUSAT 1 31 Mar 22:16:09 22:17:10 11° 293° (WNW) 22:18:06 437.405
GOMX 1 31 Mar 22:16:46 22:18:59 13° 271° (W) 22:20:57 467.674
DELFI C3 31 Mar 22:20:26 22:24:25 51° 261° (W) 22:28:26 145.870
FUNcube-1 31 Mar 22:21:19 22:25:27 79° 257° (WSW) 22:29:40 145.935
HO-68 31 Mar 22:28:21 22:33:49 22° 271° (W) 22:39:05 435.675
UWE-3 31 Mar 22:32:41 22:36:41 47° 261° (W) 22:40:44 435.000/436.395/437.385
CUBEBUG 1 31 Mar 22:34:10 22:37:44 25° 66° (ENE) 22:41:22 437.445
ZACube-1 31 Mar 22:35:21 22:39:24 54° 260° (W) 22:43:31 437.345
VELOX 1 31 Mar 22:40:51 22:45:14 60° 72° (ENE) 22:49:37 145.980
PCSat 31 Mar 22:43:07 22:48:10 37° 47° (NE) 22:53:12 145.827
CUBEBUG 2 31 Mar 22:43:39 22:47:20 30° 265° (W) 22:51:01 437.445
AISAT 31 Mar 22:46:39 22:51:04 71° 74° (ENE) 22:55:29 437.250
CINEMA 3 31 Mar 22:50:35 22:53:08 15° 271° (W) 22:55:31 145.822/145.860
UNISAT 6 31 Mar 22:51:42 22:55:19 23° 92° (E) 22:59:05 437.425
ISS 31 Mar 22:56:29 22:59:42 65° 149° (SSE) 23:02:57 145.825
QB50P1 31 Mar 22:59:55 23:01:52 13° 88° (E) 23:04:02 145.935-145.965
DUCHIFAT 1 31 Mar 23:00:18 23:02:10 13° 88° (E) 23:04:14 145.980
TIGRISAT 31 Mar 23:00:32 23:04:24 27° 94° (E) 23:08:24 435.000
RS-15 31 Mar 23:00:51 23:10:25 32° 346° (NNW) 23:20:12 29.354- 29.394
HUMSAT D 31 Mar 23:05:39 23:09:38 49° 261° (W) 23:13:41 437.325/437.525
UKube-1 31 Mar 23:13:34 23:17:24 29° 265° (W) 23:21:12 .
QB50P2 31 Mar 23:14:49 23:17:53 19° 91° (E) 23:21:02 145.880/145.840
50 SAT 31 Mar 23:21:53 23:25:40 46° 261° (W) 23:29:30 437.505
ESTCUBE 1 31 Mar 23:24:49 23:29:23 88° 76° (ENE) 23:33:59 437.505/2401.250
DX 1 31 Mar 23:27:58 23:31:19 21° 268° (W) 23:34:35 434.975-435.025
BUGSAT 1 31 Mar 23:28:22 23:31:07 18° 91° (E) 23:33:58 437.445
ANTELSAT 31 Mar 23:31:49 23:36:21 56° 100° (E) 23:40:58 437.575/2403.000
YUBILEINY 31 Mar 23:41:32 23:49:01 31° 63° (ENE) 23:56:38 435.215
POPSAT HIP 1 31 Mar 23:42:23 23:46:18 36° 97° (E) 23:50:14 437.405
TISAT 1 31 Mar 23:48:33 23:52:19 33° 69° (ENE) 23:56:07 437.305
NANOSAT C BR1 31 Mar 23:51:47 23:55:51 45° 99° (E) 23:59:56 145.865
POLYITAN 1 31 Mar 23:58:23 00:02:34 55° 100° (E) 00:06:45 437.675
SPROUT 01 Apr 00:08:12 00:12:26 61° 74° (ENE) 00:16:40 437.525
CUBEBUG 1 01 Apr 00:09:54 00:13:59 36° 263° (W) 00:18:01 437.445
SWISSCUBE 01 Apr 00:13:18 00:15:49 15° 59° (ENE) 00:18:32 437.505
BEESAT 01 Apr 00:15:52 00:18:19 14° 59° (ENE) 00:20:57 436.000
VELOX 1 01 Apr 00:19:36 00:22:15 15° 271° (W) 00:24:45 145.980
AISAT 01 Apr 00:26:11 00:28:15 13° 273° (W) 00:30:07 437.250
PCSat 01 Apr 00:26:35 00:31:39 40° 247° (WSW) 00:36:39 145.827
UNISAT 6 01 Apr 00:27:57 00:32:18 42° 290° (WNW) 00:36:41 437.425
ISS 01 Apr 00:33:14 00:36:17 35° 347° (NNW) 00:39:19 145.825
QB50P1 01 Apr 00:34:03 00:38:14 63° 287° (WNW) 00:42:25 145.935-145.965
DUCHIFAT 1 01 Apr 00:34:19 00:38:31 64° 286° (WNW) 00:42:40 145.980
TIGRISAT 01 Apr 00:37:03 00:41:14 36° 291° (WNW) 00:45:27 435.000
